| time (UTC) | temp C | wind direction | speed KPH | gust KPH | rain 1hr cm | rain 24hr cm | rain mn cm | humidity % | barometer mb |
| 20260505082214 | 21 | 67 | 1.6 | 6.4 | 0.00 | 0.00 | 0.00 | 56 | 993.4 |
| 20260505081232 | 20 | 68 | 3.2 | 6.4 | 0.00 | 0.00 | 0.00 | 56 | 993.4 |
| 20260505080250 | 20 | 69 | 1.6 | 6.4 | 0.00 | 0.00 | 0.00 | 57 | 993.4 |
| 20260505075208 | 20 | 78 | 3.2 | 6.4 | 0.00 | 0.00 | 0.00 | 58 | 993.5 |
| 20260505074230 | 20 | 54 | 1.6 | 8.0 | 0.00 | 0.00 | 0.00 | 59 | 993.5 |
| 20260505073205 | 19 | 64 | 3.2 | 9.7 | 0.00 | 0.00 | 0.00 | 60 | 993.6 |
| 20260505072202 | 19 | 90 | 1.6 | 6.4 | 0.00 | 0.00 | 0.00 | 61 | 993.5 |
| 20260505071200 | 18 | 90 | 1.6 | 4.8 | 0.00 | 0.00 | 0.00 | 63 | 993.5 |
| 20260505070158 | 18 | 80 | 3.2 | 8.0 | 0.00 | 0.00 | 0.00 | 64 | 993.6 |
| 20260505065217 | 17 | 72 | 3.2 | 8.0 | 0.00 | 0.00 | 0.00 | 65 | 993.7 |
| 20260505064154 | 17 | 90 | 3.2 | 6.4 | 0.00 | 0.00 | 0.00 | 66 | 993.8 |
| 20260505063152 | 17 | 73 | 1.6 | 8.0 | 0.00 | 0.00 | 0.00 | 67 | 993.7 |
| 20260505062150 | 16 | 81 | 3.2 | 8.0 | 0.00 | 0.00 | 0.00 | 69 | 993.8 |
| 20260505061148 | 16 | 81 | 4.8 | 8.0 | 0.00 | 0.00 | 0.00 | 70 | 993.8 |
| 20260505060146 | 16 | 90 | 6.4 | 11.3 | 0.00 | 0.00 | 0.00 | 71 | 993.8 |
| 20260505055143 | 15 | 65 | 4.8 | 11.3 | 0.00 | 0.00 | 0.00 | 74 | 993.9 |
| 20260505054143 | 15 | 90 | 4.8 | 11.3 | 0.00 | 0.00 | 0.00 | 75 | 993.9 |
| 20260505053140 | 14 | 71 | 4.8 | 11.3 | 0.00 | 0.00 | 0.00 | 79 | 993.9 |
| 20260505052158 | 13 | 90 | 3.2 | 9.7 | 0.00 | 0.00 | 0.00 | 82 | 993.9 |
| 20260505051136 | 13 | 79 | 3.2 | 6.4 | 0.00 | 0.00 | 0.00 | 84 | 993.8 |
| 20260505050135 | 12 | 90 | 1.6 | 6.4 | 0.00 | 0.00 | 0.00 | 85 | 993.9 |
| 20260505041124 | 10 | 0 | 1.6 | 4.8 | 0.00 | 0.00 | 0.00 | 85 | 994.1 |
| 20260505040122 | 10 | 306 | 1.6 | 4.8 | 0.00 | 0.00 | 0.00 | 83 | 994.0 |
| 20260505035120 | 10 | 333 | 1.6 | 3.2 | 0.00 | 0.00 | 0.00 | 78 | 994.0 |
| 20260505034118 | 10 | 335 | 1.6 | 3.2 | 0.00 | 0.00 | 0.00 | 77 | 993.9 |
| 20260505033117 | 10 | 315 | 1.6 | 3.2 | 0.00 | 0.00 | 0.00 | 77 | 993.9 |
| 20260505032115 | 10 | 334 | 1.6 | 3.2 | 0.00 | 0.00 | 0.00 | 76 | 994.0 |
| 20260505031112 | 10 | 326 | 1.6 | 3.2 | 0.00 | 0.00 | 0.00 | 76 | 993.8 |
| 20260505030110 | 11 | 8 | 1.6 | 3.2 | 0.00 | 0.00 | 0.00 | 76 | 993.8 |
| 20260505025109 | 11 | 90 | 1.6 | 3.2 | 0.00 | 0.00 | 0.00 | 74 | 993.9 |
| 20260505024106 | 11 | 45 | 1.6 | 1.6 | 0.00 | 0.00 | 0.00 | 74 | 993.9 |
| 20260505023104 | 11 | 315 | 1.6 | 1.6 | 0.00 | 0.00 | 0.00 | 74 | 993.9 |
| 20260505022103 | 12 | 344 | 1.6 | 1.6 | 0.00 | 0.00 | 0.00 | 74 | 993.8 |
| 20260505021100 | 12 | 149 | 1.6 | 1.6 | 0.00 | 0.00 | 0.00 | 73 | 993.8 |
| 20260505020057 | 12 | 35 | 1.6 | 1.6 | 0.00 | 0.00 | 0.00 | 73 | 993.8 |
| 20260505015056 | 12 | 165 | 1.6 | 3.2 | 0.00 | 0.00 | 0.00 | 72 | 993.7 |
| 20260505014054 | 12 | 320 | 1.6 | 3.2 | 0.00 | 0.00 | 0.00 | 73 | 993.7 |
| 20260505013051 | 13 | 323 | 1.6 | 1.6 | 0.00 | 0.00 | 0.00 | 71 | 993.8 |
| 20260505012110 | 13 | 0.0 | 1.6 | 0.00 | 0.00 | 0.00 | 71 | 993.6 | |
| 20260505011048 | 13 | 90 | 1.6 | 1.6 | 0.00 | 0.00 | 0.00 | 73 | 993.6 |
| 20260505010047 | 13 | 56 | 1.6 | 4.8 | 0.00 | 0.00 | 0.00 | 73 | 993.6 |
| 20260505005104 | 13 | 65 | 1.6 | 4.8 | 0.00 | 0.00 | 0.00 | 72 | 993.5 |
| 20260505004042 | 13 | 62 | 1.6 | 6.4 | 0.00 | 0.00 | 0.00 | 72 | 993.6 |
| 20260505003040 | 13 | 61 | 1.6 | 6.4 | 0.00 | 0.00 | 0.00 | 71 | 993.6 |
| 20260505002039 | 13 | 52 | 1.6 | 4.8 | 0.00 | 0.00 | 0.00 | 70 | 993.6 |
| 20260505001037 | 12 | 60 | 1.6 | 6.4 | 0.00 | 0.00 | 0.00 | 68 | 993.5 |
| 20260505000034 | 12 | 60 | 1.6 | 6.4 | 0.00 | 0.00 | 0.00 | 67 | 993.7 |
| 20260504235032 | 12 | 52 | 1.6 | 6.4 | 0.00 | 0.00 | 0.00 | 64 | 993.8 |
| 20260504234030 | 12 | 60 | 1.6 | 1.6 | 0.00 | 0.00 | 0.00 | 65 | 993.8 |
| 20260504233029 | 12 | 33 | 1.6 | 1.6 | 0.00 | 0.00 | 0.00 | 65 | 993.8 |
| 20260504232045 | 12 | 45 | 1.6 | 4.8 | 0.00 | 0.00 | 0.00 | 65 | 993.9 |
| 20260504231025 | 12 | 90 | 1.6 | 1.6 | 0.00 | 0.00 | 0.00 | 64 | 993.8 |
| 20260504230023 | 12 | 32 | 1.6 | 1.6 | 0.00 | 0.00 | 0.00 | 63 | 993.7 |
| 20260504225020 | 12 | 351 | 1.6 | 1.6 | 0.00 | 0.00 | 0.00 | 62 | 993.8 |
| 20260504224018 | 13 | 320 | 1.6 | 3.2 | 0.00 | 0.00 | 0.00 | 62 | 993.7 |
| 20260504223037 | 13 | 122 | 1.6 | 1.6 | 0.00 | 0.00 | 0.00 | 61 | 993.5 |
| 20260504222014 | 13 | 90 | 1.6 | 1.6 | 0.00 | 0.00 | 0.00 | 60 | 993.6 |
| 20260504221012 | 14 | 90 | 1.6 | 1.6 | 0.00 | 0.00 | 0.00 | 59 | 993.7 |
| 20260504220051 | 14 | 315 | 1.6 | 4.8 | 0.00 | 0.00 | 0.00 | 58 | 993.7 |
| 20260504215008 | 15 | 0.0 | 1.6 | 0.00 | 0.00 | 0.00 | 58 | 993.6 | |
| 20260504214006 | 15 | 45 | 1.6 | 1.6 | 0.00 | 0.00 | 0.00 | 55 | 993.6 |
| 20260504213006 | 15 | 90 | 1.6 | 1.6 | 0.00 | 0.00 | 0.00 | 56 | 993.5 |
| 20260504212023 | 15 | 90 | 1.6 | 1.6 | 0.00 | 0.00 | 0.00 | 56 | 993.5 |
| 20260504205458 | 15 | 90 | 1.6 | 1.6 | 0.00 | 0.00 | 0.00 | 55 | 993.5 |
| 20260504204456 | 16 | 90 | 1.6 | 1.6 | 0.00 | 0.00 | 0.00 | 56 | 993.6 |
| 20260504203513 | 16 | 0.0 | 1.6 | 0.00 | 0.00 | 0.00 | 56 | 993.6 | |
| 20260504202451 | 16 | 0.0 | 1.6 | 0.00 | 0.00 | 0.00 | 55 | 993.5 | |
| 20260504201449 | 17 | 128 | 1.6 | 1.6 | 0.00 | 0.00 | 0.00 | 53 | 993.6 |
| 20260504200507 | 17 | 90 | 1.6 | 3.2 | 0.00 | 0.00 | 0.00 | 52 | 993.5 |
| 20260504195445 | 17 | 90 | 1.6 | 1.6 | 0.00 | 0.00 | 0.00 | 51 | 993.5 |
| 20260504194503 | 17 | 0.0 | 1.6 | 0.00 | 0.00 | 0.00 | 50 | 993.6 | |
| 20260504193441 | 18 | 0.0 | 1.6 | 0.00 | 0.00 | 0.00 | 50 | 993.6 | |
| 20260504192440 | 18 | 90 | 1.6 | 1.6 | 0.00 | 0.00 | 0.00 | 48 | 993.5 |
| 20260504191438 | 19 | 90 | 1.6 | 3.2 | 0.00 | 0.00 | 0.00 | 45 | 993.6 |
| 20260504190435 | 20 | 90 | 1.6 | 1.6 | 0.00 | 0.00 | 0.00 | 45 | 993.6 |
| 20260504185433 | 20 | 125 | 1.6 | 1.6 | 0.00 | 0.00 | 0.00 | 42 | 993.5 |
| 20260504184431 | 21 | 90 | 1.6 | 1.6 | 0.00 | 0.00 | 0.00 | 41 | 993.4 |
| 20260504183429 | 21 | 90 | 1.6 | 1.6 | 0.00 | 0.00 | 0.00 | 41 | 993.3 |
| 20260504182427 | 22 | 90 | 1.6 | 3.2 | 0.00 | 0.00 | 0.00 | 39 | 993.4 |
| 20260504181425 | 22 | 90 | 1.6 | 1.6 | 0.00 | 0.00 | 0.00 | 38 | 993.3 |
| 20260504180443 | 23 | 90 | 1.6 | 1.6 | 0.00 | 0.00 | 0.00 | 36 | 993.4 |
| 20260504175421 | 23 | 90 | 1.6 | 3.2 | 0.00 | 0.00 | 0.00 | 36 | 993.2 |
| 20260504174419 | 23 | 130 | 1.6 | 3.2 | 0.00 | 0.00 | 0.00 | 36 | 993.2 |
| 20260504173417 | 24 | 156 | 1.6 | 1.6 | 0.00 | 0.00 | 0.00 | 36 | 993.2 |
| 20260504172435 | 24 | 158 | 1.6 | 1.6 | 0.00 | 0.00 | 0.00 | 35 | 993.3 |
| 20260504171414 | 25 | 153 | 1.6 | 1.6 | 0.00 | 0.00 | 0.00 | 34 | 993.2 |
| 20260504170411 | 25 | 153 | 1.6 | 1.6 | 0.00 | 0.00 | 0.00 | 34 | 993.2 |
| 20260504160400 | 27 | 270 | 1.6 | 8.0 | 0.00 | 0.00 | 0.00 | 30 | 993.3 |
| 20260504150347 | 28 | 235 | 1.6 | 6.4 | 0.00 | 0.00 | 0.00 | 26 | 993.6 |
| 20260504140336 | 30 | 225 | 1.6 | 4.8 | 0.00 | 0.00 | 0.00 | 25 | 993.9 |
| 20260504130343 | 30 | 201 | 3.2 | 6.4 | 0.00 | 0.00 | 0.00 | 24 | 994.4 |
| 20260504110259 | 26 | 197 | 4.8 | 8.0 | 0.00 | 0.00 | 0.00 | 28 | 995.3 |
| 20260504100248 | 25 | 189 | 3.2 | 8.0 | 0.00 | 0.00 | 0.00 | 32 | 995.6 |